Wind_Speed
12 11 11 11 11 11 11 11 10 10 10 9 8 7 7 6 5 5 4 5 5 5 5 5 5 6 6 5 4 4 4 4 5 5 5 5 5 5 5 5 5 5 4 4 3 3 3 3 3
12 12 12 11 10 10 12 12 12 11 10 10 9 8 8 7 6 6 6 6 6 7 6 6 6 6 7 6 5 5 4 5 5 5 5 5 4 4 4 3 3 3 3 2 2 2 1 2 2
12 12 12 12 11 11 13 13 12 12 11 11 11 10 9 9 8 8 8 7 7 7 7 7 7 7 7 7 7 6 5 5 5 5 5 5 4 4 3 3 2 2 2 1 1 1 1 1 1
12 12 12 11 12 13 13 14 13 12 12 11 11 11 11 10 9 8 9 9 8 8 8 8 8 8 8 8 8 7 6 6 5 5 5 5 4 4 3 2 2 1 0 0 0 1 1 1 1
12 11 11 11 13 14 14 14 13 13 13 13 12 12 11 10 9 9 9 9 9 9 9 9 9 9 9 9 9 8 7 7 6 6 5 5 4 4 4 3 3 2 2 2 2 2 2 2 2
12 11 10 11 14 14 14 14 14 14 14 14 13 13 12 11 10 10 11 10 10 10 10 11 11 10 11 10 10 9 9 8 7 6 6 5 5 5 5 4 4 4 4 4 3 4 4 4 4
11 11 10 11 13 14 14 13 14 14 14 14 13 13 12 11 11 11 12 12 12 11 12 13 12 12 12 12 11 10 9 9 8 8 7 6 6 5 5 6 6 5 5 5 5 5 6 6 5
11 11 10 11 12 14 14 14 14 13 14 14 14 14 14 13 12 12 13 13 13 12 13 14 13 12 12 12 12 11 10 9 9 8 8 7 6 6 7 7 7 6 6 6 6 6 7 7 7
11 10 10 11 11 13 14 14 13 14 15 15 15 15 15 15 15 14 14 15 15 14 14 14 14 14 13 12 13 12 11 10 9 9 9 8 7 7 7 7 8 8 8 8 7 7 7 7 7
11 10 11 11 11 13 13 13 14 14 14 15 16 16 16 16 16 16 17 17 17 17 16 16 16 16 15 14 14 13 12 11 10 10 9 9 8 8 7 7 8 8 8 9 8 8 8 8 8
10 10 11 11 11 12 13 13 14 14 15 15 16 17 17 17 17 18 19 18 18 19 19 19 18 17 16 16 15 14 13 12 11 11 10 9 9 8 8 8 8 9 9 9 8 8 8 8 8
10 10 10 10 11 12 13 14 15 15 16 17 17 18 19 18 17 18 20 20 21 21 21 20 20 19 17 16 15 14 12 12 11 11 10 10 10 9 9 8 9 8 8 7 7 8 8 8 9
9 9 10 11 11 12 14 15 16 16 17 17 17 18 18 17 17 18 19 20 22 22 22 21 20 20 18 17 16 14 13 12 11 11 11 10 10 10 10 8 8 7 7 7 7 7 8 8 8
9 9 10 11 12 14 14 15 16 17 17 16 17 18 17 16 15 17 17 20 21 22 22 22 21 20 19 17 15 14 13 12 11 10 10 10 10 9 8 7 7 6 6 7 7 8 8 8 8
9 10 11 12 14 15 16 16 17 18 18 17 17 18 16 13 13 15 15 17 20 22 22 22 21 20 18 17 15 14 13 12 11 10 9 9 9 8 7 6 6 6 6 6 7 8 8 8 9
9 10 12 14 14 15 16 17 18 18 18 17 16 15 13 11 11 13 14 17 19 20 21 22 21 20 19 17 16 14 13 11 10 9 7 7 7 6 5 5 5 5 5 6 6 7 8 8 9
10 10 11 14 15 16 17 18 18 18 17 15 13 11 10 8 9 11 13 16 18 19 21 21 20 19 17 17 15 13 12 11 10 8 7 7 6 5 4 4 4 4 5 5 6 7 8 9 10
10 10 12 14 16 17 18 18 18 17 15 12 10 8 7 5 6 9 11 15 18 19 19 20 19 18 16 15 13 12 11 10 9 8 7 5 4 3 3 3 3 4 4 5 6 7 7 9 9
10 10 12 14 15 16 17 17 17 15 13 10 8 7 5 2 3 6 10 13 16 17 17 18 18 18 16 13 11 10 9 9 8 7 6 4 3 3 2 2 3 3 4 5 6 7 8 9 10
10 11 13 15 15 15 14 14 14 13 11 9 7 6 4 1 2 5 8 12 14 15 16 17 18 17 15 12 11 10 8 8 7 6 5 4 3 2 2 2 2 2 4 5 6 7 8 9 10
10 11 13 14 14 13 12 12 12 12 9 8 7 5 3 2 4 5 6 9 12 15 17 17 17 16 14 12 11 11 9 7 7 5 4 3 3 2 1 1 2 3 4 5 7 8 9 10 11
10 11 12 13 13 13 11 11 11 10 8 7 6 5 2 1 2 5 6 7 11 15 15 15 15 14 13 12 11 10 9 8 7 6 4 3 2 1 0 1 2 3 5 6 8 9 10 10 11
11 12 12 12 12 11 10 9 10 9 8 6 4 3 1 1 2 3 5 6 10 12 13 13 13 13 12 12 11 10 9 8 7 6 4 3 2 1 0 1 2 3 5 7 8 9 10 11 12
11 11 11 11 10 10 10 8 9 8 7 6 4 3 1 1 2 3 4 6 9 10 11 12 12 11 11 11 11 10 9 8 8 6 5 3 2 1 1 2 3 4 6 8 9 10 11 12 12
11 10 10 10 9 10 10 8 8 7 6 5 4 3 1 1 2 4 5 6 8 10 10 11 11 11 11 11 10 10 9 9 8 6 5 4 3 2 2 3 5 6 8 9 10 11 12 13 14
11 10 9 9 9 10 11 9 8 7 6 5 4 3 1 2 2 3 5 6 8 9 10 10 10 10 11 11 10 10 9 9 8 6 5 4 4 4 5 6 7 8 9 10 11 12 13 14 16
12 11 11 10 9 9 10 10 9 8 7 6 5 4 2 3 3 4 5 6 8 9 9 10 10 10 10 10 10 10 9 8 8 7 7 6 6 7 8 9 10 11 11 12 13 14 15 17 18
13 13 12 10 10 9 10 10 10 10 8 7 7 5 4 4 4 4 5 7 8 8 9 10 10 10 10 10 10 10 10 9 9 9 9 9 9 10 10 11 12 13 13 14 15 16 17 19 20
15 14 14 13 13 10 10 11 12 11 10 8 7 7 6 5 6 6 7 7 8 9 9 10 10 11 11 11 11 11 11 11 11 11 12 12 12 13 13 13 14 15 16 17 18 19 20 21 22
18 16 15 15 15 13 11 12 14 12 11 10 9 9 8 8 8 8 8 9 9 10 10 10 11 12 12 12 13 13 13 13 13 14 14 14 15 15 16 16 17 18 19 19 20 21 22 23 24
Wind_Direction
328 325 324 324 324 324 313 310 309 311 311 313 313 314 312 300 294 275 262 239 225 214 202 203 215 218 216 220 215 203 174 157 146 138 133 126 120 114 108 102 99 96 92 85 80 77 75 77 80
323 320 319 319 320 315 306 306 306 309 308 307 308 309 307 297 283 266 250 241 230 224 213 209 216 222 225 225 216 206 187 172 162 152 143 138 135 129 122 115 107 101 94 90 93 92 92 95 95
321 318 316 315 311 301 299 303 305 306 305 306 306 303 299 291 281 264 246 234 233 228 216 213 219 224 228 227 218 210 201 191 181 169 161 159 158 153 145 133 126 115 100 91 105 121 132 149 141
320 317 315 311 304 300 300 302 303 304 302 302 303 302 295 289 280 260 245 233 233 228 220 221 224 224 226 226 222 217 211 205 201 193 183 179 181 181 182 181 190 192 166 40 228 214 211 211 214
321 318 315 310 301 301 303 303 304 303 301 302 302 301 296 291 277 256 246 238 233 227 226 226 228 228 226 225 225 222 216 214 215 214 209 203 207 211 215 220 230 240 250 268 269 253 244 241 237
321 321 313 302 300 302 302 302 301 301 299 300 300 297 294 287 274 258 245 239 232 225 226 226 228 230 225 221 224 223 220 220 222 223 223 219 221 227 232 240 246 248 254 262 266 260 251 249 247
320 318 310 303 300 300 302 301 299 297 295 296 297 295 292 283 273 260 245 237 233 227 226 228 228 228 227 224 221 220 222 225 228 231 232 230 231 237 245 254 257 260 260 263 266 262 252 247 246
317 315 311 306 300 297 300 298 297 295 294 293 293 292 287 279 270 263 250 237 233 232 230 231 232 233 233 227 223 220 225 228 232 239 239 240 242 251 255 261 261 265 267 266 267 261 250 244 243
318 315 306 302 298 296 299 297 296 294 294 291 289 290 286 275 268 261 251 239 235 235 234 230 230 230 230 229 226 228 229 233 239 242 243 249 255 260 265 269 266 264 263 264 264 264 255 248 248
320 314 304 303 299 297 298 298 299 298 296 291 289 286 284 276 268 257 246 240 235 235 236 234 233 228 228 227 225 229 233 239 243 240 244 252 261 266 273 276 275 266 264 264 264 264 258 252 251
320 314 310 304 301 298 298 300 302 301 295 293 291 288 283 276 268 256 248 244 236 234 236 236 233 229 227 227 227 229 235 243 244 242 246 252 261 270 276 277 279 274 270 267 264 261 259 256 255
320 319 315 309 307 303 303 303 304 301 295 295 294 292 285 276 264 255 246 244 238 233 232 232 232 230 226 226 226 230 235 242 245 244 248 254 262 270 278 283 284 281 279 276 271 265 264 260 256
324 323 320 315 311 309 308 307 307 303 300 298 294 293 287 276 261 252 245 239 233 229 230 231 225 224 224 223 224 230 237 242 245 248 252 256 265 272 275 282 287 283 280 280 281 282 273 267 261
324 322 320 319 316 314 313 312 312 311 305 302 297 297 292 275 259 250 240 230 227 225 223 223 218 219 220 220 223 230 234 240 245 249 253 257 265 273 273 277 288 286 282 275 277 284 276 274 270
322 323 322 321 320 319 317 316 316 316 311 307 301 300 296 279 254 244 235 223 220 217 214 214 213 215 217 219 221 227 230 237 243 249 252 253 260 269 276 282 289 291 289 287 284 285 281 281 280
323 325 324 319 318 319 320 319 318 318 316 313 309 304 299 276 250 237 225 216 212 211 211 211 211 213 216 219 221 228 232 236 237 240 244 247 255 268 274 281 289 289 296 297 295 294 290 287 286
323 319 312 312 315 316 318 317 320 319 318 318 317 314 307 280 240 224 213 208 207 208 208 207 206 209 214 218 223 227 229 231 230 232 240 246 253 257 268 282 287 288 296 302 306 308 304 297 294
294 301 307 309 315 318 319 319 322 322 322 322 324 328 320 288 229 215 208 207 201 203 206 205 203 205 209 213 217 220 221 223 223 229 234 236 239 251 264 281 290 291 300 307 312 313 311 306 301
301 305 307 310 314 318 320 322 326 329 327 329 327 330 326 301 218 209 202 197 196 201 204 201 200 201 205 208 212 212 213 211 214 222 217 212 221 240 262 287 297 301 304 312 315 314 313 310 306
300 304 306 311 315 319 322 325 330 334 335 337 335 328 320 285 180 184 190 191 196 199 196 197 198 202 205 207 212 213 212 205 209 201 197 199 211 229 249 267 293 308 312 321 324 321 319 316 313
298 300 303 311 316 319 323 329 336 338 339 338 339 337 325 218 186 181 180 188 195 190 189 192 196 199 202 206 213 215 211 204 199 197 193 189 193 198 231 273 301 322 330 331 330 327 323 322 320
291 297 303 311 318 319 324 332 337 340 341 339 341 344 340 262 185 176 179 184 186 187 190 196 200 201 201 203 204 201 197 191 189 183 180 185 185 184 216 321 330 338 337 335 334 333 330 328 325
283 295 303 310 315 318 322 329 331 335 336 334 333 343 335 239 181 173 170 174 180 187 192 195 195 194 195 196 195 194 193 193 190 181 180 184 189 180 37 356 342 338 339 339 337 335 331 329 326
282 294 302 309 317 316 316 321 325 328 332 328 320 318 304 166 149 169 177 179 179 182 183 183 187 190 194 196 196 193 190 187 183 182 188 195 202 220 295 323 328 329 331 330 331 330 329 327 325
278 295 311 314 313 304 305 308 314 318 319 323 325 322 295 189 180 181 181 179 180 182 181 183 186 189 190 192 190 188 184 183 183 187 196 206 214 240 280 300 310 317 322 322 322 323 323 323 323
272 283 283 284 290 295 303 300 300 304 305 308 315 323 290 216 194 185 183 180 178 179 179 181 187 187 186 186 186 186 187 188 191 198 212 224 237 259 279 292 301 307 313 316 317 319 321 321 320
266 272 276 283 291 296 297 300 292 290 289 288 290 296 284 234 213 201 195 190 185 185 187 189 191 191 191 191 192 195 196 200 208 219 230 240 254 268 280 290 297 303 307 310 312 315 316 317 318
264 267 273 275 280 287 293 296 294 287 281 277 272 268 260 240 223 216 208 203 198 198 199 199 201 201 202 203 204 207 211 217 225 235 243 253 264 272 279 286 293 298 302 306 308 310 312 314 315
262 264 266 267 269 273 280 283 281 281 276 270 260 255 249 239 233 226 222 216 212 211 212 212 212 212 214 216 218 221 225 230 239 246 252 258 265 272 278 284 290 295 298 301 304 305 307 309 311
257 261 264 267 272 273 272 278 276 273 272 268 261 254 252 247 242 235 230 224 220 220 222 222 222 223 224 227 229 232 235 240 247 252 257 262 267 273 278 283 287 291 294 297 299 301 304 306 308
Height
5918 5917 5916 5916 5916 5915 5914 5913 5912 5912 5911 5911 5910 5909 5908 5908 5908 5909 5907 5905 5905 5905 5905 5905 5906 5907 5907 5908 5908 5908 5908 5908 5908 5909 5909 5909 5909 5909 5909 5910 5910 5910 5910 5910 5910 5910 5910 5909 5909
5917 5915 5915 5914 5914 5914 5913 5911 5911 5910 5910 5909 5908 5907 5907 5906 5905 5905 5904 5903 5904 5904 5904 5904 5905 5906 5906 5907 5907 5907 5907 5908 5908 5908 5908 5909 5909 5909 5909 5910 5910 5910 5910 5910 5910 5910 5910 5910 5909
5915 5913 5913 5913 5912 5912 5911 5909 5909 5908 5907 5907 5906 5905 5905 5904 5903 5903 5902 5902 5902 5902 5902 5903 5904 5904 5905 5905 5906 5906 5907 5907 5907 5908 5908 5908 5908 5909 5909 5909 5910 5910 5910 5910 5910 5910 5909 5909 5909
5913 5912 5912 5911 5910 5909 5908 5907 5906 5905 5905 5904 5904 5903 5902 5901 5901 5900 5900 5900 5900 5900 5901 5901 5902 5903 5903 5904 5905 5905 5906 5906 5906 5907 5907 5907 5908 5908 5909 5909 5909 5909 5909 5910 5910 5909 5909 5909 5909
5910 5910 5910 5909 5907 5906 5905 5904 5904 5903 5902 5902 5901 5900 5899 5899 5898 5898 5898 5898 5898 5898 5899 5900 5900 5901 5902 5903 5903 5904 5905 5905 5905 5906 5906 5907 5907 5908 5908 5908 5908 5908 5909 5909 5909 5909 5909 5909 5909
5908 5908 5909 5908 5905 5904 5903 5902 5901 5900 5899 5899 5898 5897 5896 5896 5895 5895 5895 5895 5896 5896 5897 5898 5898 5899 5900 5901 5902 5903 5903 5904 5904 5905 5905 5906 5906 5906 5907 5907 5907 5907 5907 5907 5907 5907 5908 5908 5908
5907 5906 5906 5905 5903 5901 5900 5899 5898 5897 5896 5896 5895 5894 5893 5892 5892 5892 5892 5892 5893 5894 5895 5895 5896 5897 5898 5899 5900 5901 5902 5902 5902 5903 5904 5904 5905 5905 5905 5906 5906 5906 5906 5906 5905 5905 5906 5906 5906
5904 5904 5903 5902 5901 5899 5898 5896 5895 5894 5893 5892 5892 5891 5890 5889 5889 5888 5888 5888 5890 5891 5892 5893 5894 5895 5896 5897 5898 5899 5900 5900 5901 5901 5902 5902 5903 5903 5903 5904 5904 5904 5904 5904 5903 5903 5904 5904 5904
5902 5903 5901 5900 5898 5897 5895 5893 5892 5891 5890 5888 5888 5887 5886 5885 5884 5884 5885 5886 5886 5888 5889 5890 5891 5892 5893 5894 5895 5897 5897 5898 5898 5899 5899 5900 5900 5901 5901 5901 5901 5902 5902 5902 5901 5901 5901 5902 5902
5900 5900 5899 5897 5895 5894 5892 5890 5889 5888 5886 5885 5883 5882 5882 5880 5880 5880 5881 5882 5883 5884 5886 5887 5888 5889 5891 5892 5893 5894 5895 5895 5896 5897 5897 5898 5898 5898 5899 5899 5899 5899 5899 5899 5899 5899 5899 5900 5900
5898 5897 5896 5894 5892 5891 5889 5887 5886 5885 5883 5881 5879 5878 5876 5875 5875 5875 5876 5877 5879 5880 5882 5883 5885 5886 5888 5889 5890 5891 5892 5893 5894 5894 5895 5896 5896 5896 5896 5896 5896 5896 5896 5896 5896 5897 5897 5897 5898
5896 5895 5893 5892 5890 5888 5886 5885 5883 5881 5879 5877 5875 5873 5870 5869 5869 5869 5870 5872 5874 5876 5878 5880 5881 5883 5885 5886 5888 5889 5890 5891 5892 5893 5893 5893 5894 5894 5894 5894 5894 5894 5894 5894 5894 5894 5894 5895 5895
5894 5893 5891 5889 5888 5886 5884 5882 5880 5878 5875 5873 5870 5867 5864 5863 5862 5862 5863 5866 5868 5871 5874 5876 5878 5880 5882 5884 5886 5887 5888 5889 5890 5890 5891 5891 5891 5892 5892 5892 5892 5892 5892 5892 5892 5892 5892 5893 5893
5892 5891 5889 5887 5886 5883 5882 5880 5877 5874 5871 5869 5866 5862 5859 5857 5856 5856 5857 5860 5863 5866 5869 5872 5875 5877 5880 5882 5883 5885 5886 5887 5888 5888 5889 5889 5890 5890 5890 5890 5890 5890 5890 5890 5890 5890 5890 5891 5891
5890 5889 5888 5886 5884 5881 5880 5878 5875 5871 5868 5865 5861 5858 5854 5852 5852 5853 5854 5856 5858 5862 5866 5869 5872 5875 5877 5879 5881 5883 5884 5885 5886 5886 5887 5887 5888 5888 5888 5888 5888 5888 5888 5888 5888 5888 5888 5888 5889
5889 5888 5887 5885 5882 5879 5879 5876 5872 5868 5865 5861 5858 5854 5851 5849 5849 5850 5851 5853 5856 5859 5863 5866 5869 5872 5875 5877 5879 5881 5882 5883 5884 5884 5885 5885 5886 5886 5887 5887 5887 5887 5886 5886 5886 5886 5886 5886 5886
5887 5887 5886 5883 5880 5877 5875 5872 5869 5865 5862 5858 5855 5852 5849 5847 5847 5848 5849 5851 5854 5858 5861 5864 5867 5870 5873 5875 5877 5878 5880 5881 5882 5883 5883 5884 5884 5885 5885 5885 5885 5885 5885 5885 5885 5884 5884 5884 5884
5887 5885 5883 5881 5877 5875 5872 5869 5866 5862 5859 5856 5853 5851 5849 5847 5845 5846 5848 5850 5852 5856 5859 5863 5866 5869 5871 5873 5875 5877 5878 5879 5880 5881 5882 5882 5883 5883 5884 5884 5884 5884 5884 5884 5883 5883 5882 5882 5882
5883 5882 5881 5878 5875 5873 5870 5866 5863 5860 5857 5854 5852 5850 5848 5847 5846 5846 5847 5849 5852 5855 5858 5861 5864 5868 5870 5872 5874 5876 5877 5878 5879 5880 5880 5881 5882 5882 5883 5883 5883 5883 5883 5882 5882 5881 5881 5880 5879
5880 5879 5878 5875 5873 5870 5868 5865 5862 5858 5856 5853 5851 5849 5848 5847 5846 5846 5847 5849 5851 5854 5857 5860 5863 5866 5869 5871 5873 5875 5876 5877 5878 5879 5880 5880 5881 5882 5882 5882 5882 5881 5881 5881 5880 5879 5879 5878 5877
5878 5877 5875 5873 5870 5868 5866 5864 5861 5858 5856 5853 5851 5849 5848 5847 5847 5847 5848 5850 5852 5854 5857 5859 5862 5865 5868 5870 5872 5874 5875 5876 5877 5878 5879 5880 5880 5880 5881 5880 5880 5880 5880 5879 5878 5877 5877 5876 5875
5876 5874 5873 5870 5869 5867 5866 5864 5861 5858 5856 5854 5852 5850 5849 5848 5848 5847 5848 5849 5851 5854 5856 5859 5862 5864 5867 5869 5871 5873 5874 5875 5877 5878 5879 5879 5880 5880 5879 5879 5879 5878 5878 5877 5877 5876 5874 5873 5872
5872 5871 5870 5868 5867 5866 5864 5863 5862 5858 5856 5854 5852 5851 5850 5849 5849 5849 5849 5850 5852 5854 5856 5859 5861 5864 5866 5868 5870 5872 5873 5875 5876 5877 5878 5879 5879 5879 5878 5878 5878 5877 5877 5876 5875 5874 5872 5871 5870
5869 5869 5868 5866 5866 5865 5863 5862 5861 5857 5856 5854 5852 5851 5850 5850 5850 5850 5851 5852 5853 5855 5856 5859 5861 5864 5866 5868 5870 5871 5873 5875 5876 5877 5878 5878 5878 5878 5878 5877 5877 5876 5875 5874 5873 5872 5870 5869 5867
5867 5867 5868 5867 5866 5865 5862 5860 5860 5857 5855 5853 5852 5851 5851 5851 5851 5851 5851 5852 5854 5856 5857 5860 5861 5863 5865 5867 5869 5871 5872 5874 5875 5876 5877 5877 5877 5877 5877 5876 5876 5875 5874 5872 5871 5870 5868 5866 5864
5864 5865 5866 5866 5865 5863 5860 5858 5858 5856 5854 5853 5852 5851 5851 5851 5851 5851 5852 5852 5854 5856 5858 5860 5862 5863 5865 5867 5868 5870 5871 5873 5874 5875 5875 5875 5875 5875 5875 5875 5874 5873 5871 5870 5869 5867 5865 5863 5861
5861 5861 5862 5861 5861 5861 5860 5857 5855 5854 5853 5853 5852 5852 5851 5851 5852 5852 5852 5853 5855 5856 5858 5860 5862 5863 5865 5866 5868 5869 5870 5871 5872 5873 5874 5874 5874 5873 5873 5872 5871 5870 5869 5867 5866 5864 5862 5860 5857
5858 5858 5857 5858 5858 5859 5858 5856 5855 5852 5852 5851 5851 5851 5851 5851 5851 5852 5852 5853 5855 5856 5858 5860 5861 5863 5864 5865 5867 5868 5869 5870 5871 5871 5871 5871 5871 5871 5870 5869 5868 5867 5865 5864 5862 5860 5858 5856 5853
5854 5854 5854 5855 5855 5855 5856 5857 5851 5850 5850 5849 5849 5850 5850 5850 5851 5851 5852 5853 5854 5856 5857 5859 5860 5861 5863 5864 5865 5866 5867 5868 5868 5869 5869 5869 5868 5868 5867 5866 5864 5863 5861 5860 5858 5856 5853 5851 5848
5849 5850 5850 5851 5851 5850 5851 5854 5848 5847 5847 5847 5847 5847 5848 5849 5849 5850 5851 5852 5853 5854 5856 5857 5858 5860 5861 5862 5863 5864 5864 5865 5865 5865 5865 5865 5865 5864 5863 5861 5860 5859 5857 5855 5853 5851 5848 5846 5843